Regional Weather Roundup
Issued by NWS

Home | Current Version | Previous Version | Text Only | Print | Product List | Glossary Off
Versions: 1 2 3 4 5 6 7 8 9 10 11 12 13 14 15 16 17 18 19 20 21 22 23 24 25 26 27 28 29 30 31 32 33 34 35 36 37 38 39 40 41 42 43 44 45 46 47 48 49 50

000
ASUS43 KMPX 261910
RWRMN
WEATHER ROUNDUP FOR MINNESOTA
NATIONAL WEATHER SERVICE TWIN CITIES/CHANHASSEN MN
200 PM CDT THU MAY 26 2016


NOTE: "FAIR" INDICATES FEW OR NO CLOUDS BELOW 12,000 FEET WITH NO
SIGNIFICANT WEATHER AND/OR OBSTRUCTIONS TO VISIBILITY. N/A MEANS
CURRENT SKY AND/OR WEATHER CONDITIONS ARE NOT AVAILABLE.

MNZ060>063-068>070-262000-
   Twin Cities Metro

CITY           SKY/WX    TMP DP  RH WIND       PRES   REMARKS
TWIN CITIES    MOSUNNY   79  53  40 W15       29.82R
ST PAUL        SUNNY     78  55  44 SW14      29.81R
CRYSTAL        SUNNY     79  51  37 W14G23    29.81R
BLAINE         MOSUNNY   79  54  41 SW12G21   29.81R
EDEN PRAIRIE   SUNNY     78  54  43 W15G23    29.82R
SOUTH ST PAUL  SUNNY     78  53  40 W13G20    29.81S
LAKE ELMO      FAIR      79  59  50 SW15      29.82S
$$
MNZ001>005-007-008-013>017-022>024-027-028-262000-
   Northwest Minnesota

CITY           SKY/WX    TMP DP  RH WIND       PRES   REMARKS
BEMIDJI        PTSUNNY   70  54  57 W9        29.76S
HALLOCK        MOSUNNY   70  55  60 W17       29.70R
ROSEAU         MOSUNNY   66  57  72 W16G23    29.72R
WARROAD        PTSUNNY   66  61  82 W13       29.72R
THIEF RVR FALL PTSUNNY   66  55  68 W15       29.76S
CROOKSTON      MOSUNNY   70  57  64 W13       29.76S
FOSSTON        CLOUDY    64  57  77 SW12      29.78R
DETROIT LAKES  MOSUNNY   64  55  72 SW10      29.82S
MOORHEAD       MOSUNNY   66  57  72 W12       29.80S
PARK RAPIDS    MOSUNNY   71  53  52 W16G23    29.79R
MAHNOMEN       MOCLDY    66  58  74 SW10      29.78S
$$
MNZ006-009>011-018-025>026-262000-
   North Central Minnesota

CITY           SKY/WX    TMP DP  RH WIND       PRES   REMARKS
BAUDETTE       PTSUNNY   69  53  56 SW14G21   29.72R
FLAG ISLAND    CLOUDY    63  57  82 S6        29.70R
INTL FALLS     PTSUNNY   70  57  63 N3        29.74S
WASKISH        SUNNY     70  59  68 W10       29.76R
BIG FORK       PTSUNNY   72  55  56 SW6       29.76S
LONGVILLE      MOSUNNY   75  54  46 S7        29.77S
GRAND RAPIDS   PTSUNNY   68  57  68 CALM      29.79S
CRANE LAKE     CLOUDY    63  55  77 CALM      29.79R
ORR            PTSUNNY   68  54  60 S8        29.75S
COOK           CLOUDY    64  55  72 SW7       29.79R
WALKER         MOCLDY    73  53  49 S9        29.76S
$$
MNZ012-019>021-037-262000-
   Northeast Minnesota

CITY           SKY/WX    TMP DP  RH WIND       PRES   REMARKS
DULUTH         PTSUNNY   61  54  77 VRB3      29.81R
ELY            PTSUNNY   68  55  64 SW3       29.77S
HIBBING        CLOUDY    62  56  80 VRB3      29.79R
EVELETH        PTSUNNY   63  55  77 W9        29.80R
DULUTH HARBOR  CLOUDY    48  46  93 NE6       29.83R
TWO HARBORS    CLOUDY    57  54  88 SE5       29.80R HAZE
SILVER BAY     CLOUDY    55  54  94 E5        29.81R
GRAND MARAIS     N/A     46  45  96 NE9       29.83R
G MARAIS ARPRT CLOUDY    55  50  82 SE3       29.83F
$$
MNZ029>031-032-039>041-046>048-054>057-064-262000-
   West Central Minnesota

CITY           SKY/WX    TMP DP  RH WIND       PRES   REMARKS
FERGUS FALLS   MOSUNNY   72  54  53 NW12G21   29.78S
WHEATON        SUNNY     79  50  36 W14G20    29.82S
MORRIS         SUNNY     75  46  35 NW18G26   29.81S
ALEXANDRIA     SUNNY     75  47  36 W20G25    29.84R
ELBOW LAKE     FAIR      74  50  42 NW13G22   29.82F
WADENA         MOSUNNY   70  54  56 W14G22    29.80S
GLENWOOD       SUNNY     75  46  35 W14G22    29.83S
APPLETON       SUNNY     79  41  25 W16G22    29.82S
BENSON         SUNNY     81  39  22 NW13G24   29.82S
ORTONVILLE     SUNNY     79  43  27 W13G18    29.83R
MADISON        SUNNY     79  45  29 W15G21    29.84S
WILLMAR        FAIR      79  46  31 W16G22    29.85R
$$
MNZ033>034-036-042>043-049>051-058-059-262000-
   Central Minnesota

CITY           SKY/WX    TMP DP  RH WIND       PRES   REMARKS
ST CLOUD       SUNNY     77  53  43 W13       29.81R
SAUK CENTRE    FAIR      74  50  42 W16G25    29.82S
PAYNESVILLE    SUNNY     76  45  33 NW9       29.84S
AITKIN         MOSUNNY   79  50  36 SW5G17    29.76S
PINE RIVER     MOSUNNY   73  54  49 SW13G20   29.81S
BRAINERD       SUNNY     75  52  44 W16       29.78F
STAPLES        SUNNY     72  54  53 W14G20    29.81R
LONG PRAIRIE   FAIR      72  48  43 SW14      29.83R
LITTLE FALLS   SUNNY     72  50  46 W12G18    29.81S
LITCHFIELD     SUNNY     75  52  43 NW10      29.84S
BUFFALO        SUNNY     76  51  42 SW8G18    29.84S
MAPLE LAKE     SUNNY     76  56  50 SW7       29.84R
HUTCHINSON     SUNNY     77  55  45 W13       29.85S
$$
MNZ037-044-045-052-053-262000-
   East Central Minnesota

CITY           SKY/WX    TMP DP  RH WIND       PRES   REMARKS
PRINCETON      SUNNY     79  55  44 SW12G18   29.81R
MORA           SUNNY     73  54  49 SW15G21   29.80S
CAMBRIDGE        N/A     81  59  47 SW10      29.79R
RUSH CITY      MOSUNNY   78  56  48 SW7       29.79S
MOOSE LAKE     SUNNY     70  59  68 CALM      29.76F
HINCKLEY       MOCLDY    77  59  53 SW13      29.78S
CLOQUET        MOSUNNY   61  54  77 CALM      29.81R
MCGREGOR       PTSUNNY   73  55  53 SW10G18   29.77S
$$
MNZ071>073-080-081-089-090-097-098-262000-
   Southwest Minnesota

CITY           SKY/WX    TMP DP  RH WIND       PRES   REMARKS
MONTEVIDEO     SUNNY     81  46  30 NE7G16    29.85S
GRANITE FALLS  SUNNY     81  48  31 W10G17    29.85S
CANBY          MOSUNNY   78  51  37 W14G21    29.87R
MARSHALL       MOSUNNY   77  49  37 NW13G18   29.84F
REDWOOD FALLS  MOSUNNY   79  48  33 NW14      29.84S
OLIVIA         SUNNY     77  50  38 NW10G21   29.84S
PIPESTONE      CLOUDY    75  46  35 N7G21     29.88R
WINDOM         CLOUDY    75  48  38 CALM      29.84F
WORTHINGTON    PTSUNNY   75  53  46 S9        29.89R
JACKSON        MOSUNNY   73  46  38 SW5       29.89S
TRACY          CLOUDY    79  48  34 NW10G16   29.85F
SLAYTON        CLOUDY    73  47  39 NW10      29.88F
$$
MNZ065>067-074>077-082>085-091>093-262000-
   South Central Minnesota

CITY           SKY/WX    TMP DP  RH WIND       PRES   REMARKS
MANKATO        SUNNY     75  54  46 W12       29.86S
NEW ULM        SUNNY     75  48  38 W12       29.85F
ST JAMES       MOSUNNY   72  46  40 NW8       29.85F
FAIRMONT       SUNNY     75  50  41 SW8       29.88R
GLENCOE        SUNNY     77  55  47 W12       29.84R
FARIBAULT      SUNNY     77  55  47 SW13      29.86R
OWATONNA       SUNNY     77  52  41 SW14      29.87R
WASECA         SUNNY     77  52  41 W9        29.88R
ALBERT LEA     SUNNY     77  55  47 SW5       29.88R
$$
MNZ078>079-086>088-094>096-262000-
   Southeast Minnesota

CITY           SKY/WX    TMP DP  RH WIND       PRES   REMARKS
ROCHESTER      SUNNY     75  65  70 SW14G22   29.88R
RED WING       SUNNY     81  52  36 W13       29.81R
STANTON        SUNNY     78  54  42 W10       29.82S
DODGE CENTER   SUNNY     77  57  50 SW16      29.87S
WINONA         SUNNY     79  61  53 SW8G16    29.84R
AUSTIN         SUNNY     75  57  53 W10       29.88R
PRESTON        SUNNY     76  60  58 W12       29.89R
$$
ABBREVIATIONS USED IN REMARKS
   TC - TEMPERATURES IN CELSIUS
  WCI - WIND CHILL INDEX
   HX - HEAT INDEX
  VSB - VISIBILITY
$$




USA.gov is the U.S. government's official web portal to all federal, state and local government web resources and services.